Regional Weather Roundup
Issued by NWS

Home | Current Version | Previous Version | Text Only | Print | Product List | Glossary On
Versions: 1 2 3 4 5 6 7 8 9 10 11 12 13 14 15 16 17 18 19 20 21 22 23 24 25 26 27 28 29 30 31 32 33 34 35 36 37 38 39 40 41 42 43 44 45 46 47 48 49 50
000
ASUS43 KLSX 031310
RWRMO

WEATHER SUMMARY FOR MISSOURI
NATIONAL WEATHER SERVICE SPRINGFIELD MO
800 AM CDT TUE MAY 03 2016

NOTE: "FAIR" INDICATES FEW OR NO CLOUDS BELOW 12,000 FEET WITH NO
       SIGNIFICANT WEATHER AND/OR OBSTRUCTIONS TO VISIBILITY.
       CURRENT SKY AND/OR WEATHER CONDITIONS ARE NOT AVAILABLE FOR
       CHILLICOTHE AND FARMINGTON.

MOZ001>031-035>038-043-044-053-054-031400-
...NORTHERN AND WESTERN MISSOURI...

CITY           SKY/WX    TMP DP  RH WIND       PRES   REMARKS
KANSAS CTY INT FAIR      50  46  86 W5        30.08R
KANSAS C DTWN  FAIR      49  46  90 CALM      30.08R
LEE`S SUMMIT   FAIR      48  46  93 CALM      30.08R
ST JOSEPH      FOG       44  44 100 CALM      30.08R VSB<1/4
CHILLICOTHE      N/A     46  44  93 CALM      30.09R
KIRKSVILLE     FAIR      51  46  83 NW5       30.06S

$$
MOZ066>068-077>081-088>096-101>105-031400-
...SOUTHWEST MISSOURI...

CITY           SKY/WX    TMP DP  RH WIND       PRES   REMARKS
SPRINGFIELD    FOG       45  43  93 CALM      30.08R VSB 1/4
JOPLIN         FAIR      47  47 100 CALM      30.11R FOG
BRANSON        MOSUNNY   48  45  87 CALM      30.09R

$$
MOZ032>034-039>042-045>050-055>058-069>072-031400-
...CENTRAL MISSOURI...

CITY           SKY/WX    TMP DP  RH WIND       PRES   REMARKS
COLUMBIA       FOG       46  46 100 CALM      30.07R VSB<1/4
JEFFERSON CITY FOG       46  45  96 NW5       30.08R VSB 1/4
ROLLA          CLOUDY    48  46  93 NW3       30.05R FOG
SEDALIA        FAIR      49  47  93 NW5       30.09R FOG
WHITEMAN AFB   MOSUNNY   47  47 100 W2        30.07R
WARRENSBURG    FAIR      45  43  93 CALM      30.08S FOG
OSAGE BEACH    CLOUDY    46  39  76 CALM      30.08R VSB 1/4

$$
MOZ051-052-059>065-031400-
...EAST CENTRAL MISSOURI...

CITY           SKY/WX    TMP DP  RH WIND       PRES   REMARKS
ST LOUIS INTL  PTSUNNY   56  49  77 NW6       30.04R
SPIRIT OF STL  FAIR      54  49  83 W3        30.04R
ST CHARLES     FAIR      54  49  83 NW9       30.03R

$$
MOZ072>076-082>087-097>100-106>115-031400-
...SOUTH CENTRAL AND SOUTHEAST MISSOURI...

CITY           SKY/WX    TMP DP  RH WIND       PRES   REMARKS
CAPE GIRARDEAU CLOUDY    54  49  83 N7        30.02R
FARMINGTON     CLOUDY    52  48  86 NW6       30.04R
POPLAR BLUFF   FAIR      56  49  77 N8        30.03R
WEST PLAINS    PTSUNNY   53  45  74 N10G20    30.06R

$$



USA.gov is the U.S. government's official web portal to all federal, state and local government web resources and services.